アトラス彗星

P/2017 S5 ( ATLAS )

English version
Home page
Updated on October 9, 2017

---------------------------------------------------------------------

・ プロフィール

発見日 2017年9月27日
発見光度 18.2等
発見者 Asteroid Terrestrial-impact Last Alert System (ATLAS) search program

・ 写真集

・ 軌道要素

Epoch 2017 July 26.0 TT = JDT 2457960.5
T 2017 July 27.64097 TT                                 MPCW
q   2.1781172            (2000.0)            P               Q
n   0.17433936     Peri.   99.78368     +0.97073636     +0.13915058
a   3.1735042      Node   252.41725     -0.19916550     +0.92187015
e   0.3136555      Incl.   11.84802     +0.13417909     +0.36165251
P   5.65
From 108 observations 2017 Sept. 1-30, mean residual 0".4.

・ 光度変化

        m1 = 14.0 + 5 logΔ + 10.0 log r

---------------------------------------------------------------------

軌道要素はM.P.E.C. 2017-T14に掲載されたものです。
光度グラフはComet for Windowsで作成したものです。

---------------------------------------------------------------------

Copyright(C) Seiichi Yoshida (comet@aerith.net). All rights reserved.